This is the latest recevied weather packets stored in our database for station/object NE1CU. If no packets are shown the sender has not sent any weather packets the latest 10 day(s).
| Time | Temp. | Humidity | Pressure | Rain* | Wind** | Luminosity | Snow |
|---|---|---|---|---|---|---|---|
| 1778093091 | 15.56° C | 90% | 1007.9 hPa | 0 mm | - | 298 W/m² | - |
| 1778092789 | 15° C | 90% | 1008 hPa | 0 mm | - | 305 W/m² | - |
| 1778092484 | 15° C | 90% | 1008.1 hPa | 0 mm | - | 245 W/m² | - |
| 1778092181 | 15° C | 90% | 1008 hPa | 0 mm | - | 219 W/m² | - |
| 1778091878 | 15° C | 90% | 1008.2 hPa | 1.78 mm | - | 170 W/m² | - |
| 1778091576 | 15° C | 90% | 1008.2 hPa | 1.78 mm | - | 300 W/m² | - |
| 1778091274 | 14.44° C | 90% | 1008.1 hPa | 1.27 mm | - | 281 W/m² | - |
| 1778090970 | 14.44° C | 90% | 1008.2 hPa | 3.05 mm | - | 145 W/m² | - |
| 1778090666 | 15° C | 89% | 1008.1 hPa | 1.78 mm | - | 115 W/m² | - |
| 1778090363 | 15° C | 88% | 1008.4 hPa | 0 mm | - | 99 W/m² | - |
| 1778090060 | 15° C | 87% | 1008.3 hPa | 1.27 mm | - | 77 W/m² | - |
| 1778089757 | 15° C | 87% | 1008.3 hPa | 1.27 mm | - | 85 W/m² | - |
| 1778089454 | 15° C | 87% | 1008.4 hPa | 0 mm | - | 163 W/m² | - |
| 1778089152 | 15° C | 86% | 1008.5 hPa | 0 mm | - | 188 W/m² | - |
| 1778088848 | 15° C | 86% | 1008.4 hPa | 0 mm | - | 191 W/m² | - |
| 1778088546 | 15° C | 86% | 1008.7 hPa | 1.78 mm | - | 167 W/m² | - |
| 1778088242 | 15° C | 86% | 1008.9 hPa | 1.78 mm | - | 165 W/m² | - |
| 1778087939 | 15° C | 85% | 1008.9 hPa | 0 mm | - | 134 W/m² | - |
| 1778087637 | 15.56° C | 84% | 1009 hPa | 0 mm | - | 132 W/m² | - |
| 1778087335 | 15.56° C | 83% | 1009.2 hPa | 0 mm | - | 116 W/m² | - |
| 1778087030 | 15.56° C | 83% | 1009.3 hPa | 0 mm | - | 128 W/m² | - |
| 1778086729 | 15.56° C | 83% | 1009.1 hPa | 0 mm | - | 128 W/m² | - |
| 1778086427 | 15.56° C | 82% | 1009.4 hPa | 0 mm | - | 94 W/m² | - |
| 1778086123 | 15.56° C | 81% | 1009.4 hPa | 0 mm | - | 96 W/m² | - |
| 1778085820 | 15.56° C | 82% | 1009.6 hPa | 0 mm | - | 152 W/m² | - |
* Rain latest hour (hover to see other rain measurements)
** Current wind speed in m/s (hover to see current wind gust speed)